| time (UTC) | temp C | wind direction | speed KPH | gust KPH | rain 1hr cm | rain 24hr cm | rain mn cm | humidity % | barometer mb |
| 20260901160300 | 21 | 193 | 0.0 | 1.6 | 0.00 | 0.03 | 0.03 | 74 | 1017.9 |
| 20260901155259 | 21 | 165 | 0.0 | 1.6 | 0.00 | 0.03 | 0.03 | 73 | 1017.8 |
| 20260901153753 | 22 | 166 | 0.0 | 1.6 | 0.00 | 0.03 | 0.03 | 74 | 1017.8 |
| 20260901153253 | 22 | 135 | 0.0 | 1.6 | 0.00 | 0.03 | 0.03 | 74 | 1017.8 |
| 20260901151805 | 22 | 135 | 0.0 | 1.6 | 0.00 | 0.03 | 0.03 | 72 | 1017.8 |
| 20260901150752 | 21 | 155 | 0.0 | 1.6 | 0.03 | 0.03 | 0.03 | 72 | 1017.8 |
| 20260901145752 | 21 | 134 | 0.0 | 1.6 | 0.03 | 0.03 | 0.03 | 71 | 1018.0 |
| 20260901144755 | 21 | 67 | 0.0 | 0.0 | 0.03 | 0.03 | 0.03 | 69 | 1018.3 |
| 20260901144749 | 21 | 97 | 0.0 | 0.0 | 0.03 | 0.03 | 0.03 | 71 | 1018.3 |
| 20260901142749 | 21 | 67 | 0.0 | 1.6 | 0.03 | 0.03 | 0.03 | 67 | 1018.2 |
| 20260901141750 | 21 | 43 | 0.0 | 3.2 | 0.03 | 0.03 | 0.03 | 67 | 1018.3 |
| 20260901140747 | 21 | 36 | 0.0 | 0.0 | 0.00 | 0.00 | 0.00 | 65 | 1018.3 |
| 20260901135745 | 21 | 36 | 0.0 | 0.0 | 0.00 | 0.00 | 0.00 | 66 | 1018.0 |
| 20260901134747 | 20 | 35 | 0.0 | 0.0 | 0.00 | 0.00 | 0.00 | 67 | 1018.1 |
| 20260901133746 | 20 | 36 | 0.0 | 1.6 | 0.00 | 0.00 | 0.00 | 68 | 1018.1 |
| 20260901132745 | 20 | 30 | 0.0 | 1.6 | 0.00 | 0.00 | 0.00 | 68 | 1018.1 |
| 20260901131743 | 20 | 13 | 0.0 | 0.0 | 0.00 | 0.00 | 0.00 | 68 | 1018.1 |
| 20260901130744 | 20 | 13 | 0.0 | 1.6 | 0.00 | 0.00 | 0.00 | 69 | 1018.0 |
| 20260901125744 | 20 | 49 | 0.0 | 1.6 | 0.00 | 0.00 | 0.00 | 68 | 1018.1 |
| 20260901124744 | 20 | 41 | 0.0 | 1.6 | 0.00 | 0.00 | 0.00 | 69 | 1018.1 |
| 20260901124245 | 20 | 167 | 0.0 | 0.0 | 0.00 | 0.00 | 0.00 | 68 | 1018.1 |
| 20260901122742 | 20 | 167 | 0.0 | 0.0 | 0.00 | 0.00 | 0.00 | 67 | 1018.0 |
| 20260901121741 | 20 | 166 | 0.0 | 0.0 | 0.00 | 0.00 | 0.00 | 67 | 1017.9 |
| 20260901120743 | 20 | 166 | 0.0 | 0.0 | 0.00 | 0.00 | 0.00 | 67 | 1017.8 |
| 20260901115738 | 20 | 166 | 0.0 | 0.0 | 0.00 | 0.00 | 0.00 | 66 | 1018.0 |
| 20260901114737 | 19 | 166 | 0.0 | 0.0 | 0.00 | 0.00 | 0.00 | 66 | 1018.1 |
| 20260901113737 | 19 | 166 | 0.0 | 0.0 | 0.00 | 0.00 | 0.00 | 66 | 1018.0 |
| 20260901112738 | 19 | 167 | 0.0 | 0.0 | 0.00 | 0.00 | 0.00 | 66 | 1018.0 |
| 20260901111739 | 18 | 166 | 0.0 | 0.0 | 0.00 | 0.00 | 0.00 | 65 | 1017.9 |
| 20260901110735 | 18 | 166 | 0.0 | 0.0 | 0.00 | 0.00 | 0.00 | 65 | 1017.9 |
| 20260901110237 | 18 | 167 | 0.0 | 0.0 | 0.00 | 0.00 | 0.00 | 65 | 1017.7 |
| 20260901104736 | 18 | 166 | 0.0 | 1.6 | 0.00 | 0.00 | 0.00 | 65 | 1017.6 |
| 20260901104238 | 18 | 172 | 0.0 | 0.0 | 0.00 | 0.00 | 0.00 | 65 | 1017.6 |
| 20260901102733 | 18 | 172 | 0.0 | 0.0 | 0.00 | 0.00 | 0.00 | 65 | 1017.5 |
| 20260901102231 | 18 | 172 | 0.0 | 0.0 | 0.00 | 0.00 | 0.00 | 65 | 1017.4 |
| 20260901095725 | 18 | 172 | 0.0 | 0.0 | 0.00 | 0.00 | 0.00 | 66 | 1017.3 |
| 20260901094727 | 18 | 172 | 0.0 | 0.0 | 0.00 | 0.00 | 0.00 | 66 | 1017.3 |
| 20260901093740 | 18 | 172 | 0.0 | 0.0 | 0.00 | 0.00 | 0.00 | 67 | 1017.3 |
| 20260901092727 | 18 | 172 | 0.0 | 0.0 | 0.00 | 0.00 | 0.00 | 68 | 1017.4 |
| 20260901091725 | 18 | 172 | 0.0 | 0.0 | 0.00 | 0.00 | 0.00 | 68 | 1017.3 |
| 20260901090725 | 18 | 172 | 0.0 | 0.0 | 0.00 | 0.00 | 0.00 | 68 | 1017.4 |
| 20260901085724 | 18 | 172 | 0.0 | 0.0 | 0.00 | 0.00 | 0.00 | 68 | 1017.3 |
| 20260901084719 | 18 | 172 | 0.0 | 0.0 | 0.00 | 0.00 | 0.00 | 68 | 1017.7 |
| 20260901084222 | 18 | 172 | 0.0 | 0.0 | 0.00 | 0.00 | 0.00 | 69 | 1017.9 |
| 20260901082719 | 18 | 172 | 0.0 | 0.0 | 0.00 | 0.00 | 0.00 | 69 | 1018.1 |
| 20260901080719 | 18 | 172 | 0.0 | 0.0 | 0.00 | 0.00 | 0.00 | 69 | 1018.0 |
| 20260901075721 | 18 | 172 | 0.0 | 0.0 | 0.00 | 0.00 | 0.00 | 70 | 1017.9 |
| 20260901074721 | 18 | 172 | 0.0 | 0.0 | 0.00 | 0.00 | 0.00 | 70 | 1018.0 |
| 20260901073719 | 18 | 172 | 0.0 | 0.0 | 0.00 | 0.00 | 0.00 | 70 | 1018.1 |
| 20260901072719 | 18 | 172 | 0.0 | 0.0 | 0.00 | 0.00 | 0.00 | 70 | 1018.2 |
| 20260901071717 | 18 | 172 | 0.0 | 0.0 | 0.00 | 0.00 | 0.00 | 70 | 1018.1 |
| 20260901070716 | 18 | 172 | 0.0 | 0.0 | 0.00 | 0.00 | 0.00 | 70 | 1018.2 |
| 20260901065712 | 18 | 172 | 0.0 | 0.0 | 0.00 | 0.00 | 0.00 | 70 | 1018.2 |
| 20260901064728 | 18 | 172 | 0.0 | 0.0 | 0.00 | 0.00 | 0.00 | 70 | 1018.4 |
| 20260901063713 | 18 | 172 | 0.0 | 0.0 | 0.00 | 0.00 | 0.00 | 69 | 1018.6 |
| 20260901062714 | 18 | 172 | 0.0 | 0.0 | 0.00 | 0.00 | 0.00 | 69 | 1018.5 |
| 20260901061713 | 18 | 172 | 0.0 | 0.0 | 0.00 | 0.00 | 0.00 | 69 | 1018.4 |
| 20260901061215 | 18 | 172 | 0.0 | 0.0 | 0.00 | 0.00 | 0.00 | 69 | 1018.4 |
| 20260901055713 | 18 | 172 | 0.0 | 0.0 | 0.00 | 0.00 | 0.00 | 70 | 1018.5 |
| 20260901054707 | 18 | 172 | 0.0 | 0.0 | 0.00 | 0.00 | 0.00 | 70 | 1018.6 |
| 20260901053707 | 18 | 172 | 0.0 | 1.6 | 0.00 | 0.00 | 0.00 | 70 | 1018.7 |
| 20260901052708 | 18 | 172 | 0.0 | 0.0 | 0.00 | 0.00 | 0.00 | 70 | 1018.6 |
| 20260901052208 | 18 | 172 | 0.0 | 0.0 | 0.00 | 0.00 | 0.00 | 70 | 1018.5 |
| 20260901050708 | 18 | 172 | 0.0 | 0.0 | 0.00 | 0.03 | 0.00 | 70 | 1018.6 |
| 20260901045708 | 18 | 172 | 0.0 | 0.0 | 0.00 | 0.08 | 0.00 | 69 | 1018.6 |
| 20260901044706 | 18 | 172 | 0.0 | 0.0 | 0.00 | 0.08 | 0.00 | 69 | 1018.6 |
| 20260901043705 | 18 | 172 | 0.0 | 0.0 | 0.00 | 0.08 | 0.00 | 70 | 1018.9 |
| 20260901042704 | 18 | 172 | 0.0 | 0.0 | 0.00 | 0.08 | 0.00 | 71 | 1019.0 |
| 20260901042205 | 18 | 172 | 0.0 | 0.0 | 0.00 | 0.08 | 0.00 | 72 | 1019.0 |
| 20260901040703 | 18 | 172 | 0.0 | 0.0 | 0.00 | 0.08 | 0.00 | 72 | 1019.0 |
| 20260901035702 | 18 | 172 | 0.0 | 0.0 | 0.00 | 0.08 | 0.08 | 72 | 1019.0 |
| 20260901034701 | 19 | 172 | 0.0 | 0.0 | 0.00 | 0.10 | 0.08 | 71 | 1019.0 |
| 20260901033701 | 19 | 172 | 0.0 | 0.0 | 0.00 | 0.13 | 0.08 | 71 | 1019.0 |
| 20260901032704 | 19 | 172 | 0.0 | 0.0 | 0.00 | 0.25 | 0.08 | 72 | 1019.1 |
| 20260901031702 | 19 | 172 | 0.0 | 0.0 | 0.00 | 0.25 | 0.08 | 72 | 1019.1 |
| 20260901030702 | 19 | 172 | 0.0 | 0.0 | 0.00 | 0.28 | 0.08 | 72 | 1019.0 |
| 20260901025704 | 19 | 172 | 0.0 | 0.0 | 0.00 | 0.30 | 0.08 | 72 | 1019.1 |
| 20260901025205 | 19 | 172 | 0.0 | 1.6 | 0.00 | 0.33 | 0.08 | 72 | 1019.1 |
| 20260901023702 | 19 | 167 | 0.0 | 0.0 | 0.00 | 0.33 | 0.08 | 72 | 1019.2 |
| 20260901022703 | 19 | 167 | 0.0 | 0.0 | 0.00 | 0.33 | 0.08 | 73 | 1019.3 |
| 20260901021702 | 19 | 167 | 0.0 | 0.0 | 0.00 | 0.33 | 0.08 | 74 | 1019.4 |
| 20260901020704 | 20 | 167 | 0.0 | 0.0 | 0.00 | 0.36 | 0.08 | 73 | 1019.3 |
| 20260901015704 | 20 | 167 | 0.0 | 0.0 | 0.00 | 0.36 | 0.08 | 74 | 1019.4 |
| 20260901014701 | 20 | 167 | 0.0 | 0.0 | 0.00 | 0.36 | 0.08 | 74 | 1019.2 |
| 20260901013703 | 20 | 167 | 0.0 | 0.0 | 0.00 | 0.36 | 0.08 | 73 | 1019.2 |
| 20260901013157 | 20 | 167 | 0.0 | 0.0 | 0.00 | 0.36 | 0.08 | 73 | 1019.3 |
| 20260901012157 | 20 | 167 | 0.0 | 1.6 | 0.00 | 0.36 | 0.08 | 73 | 1019.3 |
| 20260901011156 | 20 | 155 | 0.0 | 1.6 | 0.00 | 0.36 | 0.08 | 73 | 1019.2 |
| 20260901005656 | 20 | 155 | 0.0 | 0.0 | 0.00 | 0.36 | 0.08 | 73 | 1019.3 |
| 20260901004657 | 20 | 155 | 0.0 | 0.0 | 0.00 | 0.36 | 0.08 | 74 | 1019.2 |
| 20260901003656 | 20 | 155 | 0.0 | 1.6 | 0.00 | 0.36 | 0.08 | 74 | 1019.2 |
| 20260901002656 | 20 | 155 | 0.0 | 1.6 | 0.00 | 0.36 | 0.08 | 75 | 1019.2 |
| 20260901001655 | 20 | 155 | 0.0 | 0.0 | 0.00 | 0.36 | 0.08 | 75 | 1019.4 |
| 20260901001157 | 20 | 155 | 0.0 | 0.0 | 0.00 | 0.36 | 0.08 | 75 | 1019.4 |
| 20260831235651 | 20 | 155 | 0.0 | 0.0 | 0.00 | 0.36 | 0.08 | 75 | 1019.3 |
| 20260831234649 | 20 | 155 | 0.0 | 0.0 | 0.00 | 0.36 | 0.08 | 75 | 1019.4 |
| 20260831233702 | 20 | 155 | 0.0 | 0.0 | 0.00 | 0.36 | 0.08 | 75 | 1019.2 |
| 20260831233651 | 20 | 155 | 0.0 | 1.6 | 0.00 | 0.36 | 0.08 | 75 | 1019.3 |
| 20260831231650 | 21 | 155 | 0.0 | 1.6 | 0.00 | 0.36 | 0.08 | 75 | 1019.2 |
| 20260831230651 | 21 | 155 | 0.0 | 1.6 | 0.00 | 0.36 | 0.08 | 75 | 1019.3 |
| 20260831225649 | 21 | 155 | 0.0 | 1.6 | 0.00 | 0.36 | 0.08 | 75 | 1019.3 |
| 20260831224651 | 21 | 160 | 0.0 | 1.6 | 0.00 | 0.36 | 0.08 | 75 | 1019.3 |
| 20260831223650 | 21 | 150 | 0.0 | 1.6 | 0.00 | 0.36 | 0.08 | 75 | 1019.4 |
| 20260831222646 | 21 | 160 | 0.0 | 1.6 | 0.00 | 0.36 | 0.08 | 75 | 1019.4 |
| 20260831221644 | 22 | 163 | 0.0 | 1.6 | 0.00 | 0.36 | 0.08 | 74 | 1019.4 |
| 20260831220643 | 22 | 163 | 0.0 | 1.6 | 0.00 | 0.36 | 0.08 | 74 | 1019.5 |
| 20260831215644 | 22 | 166 | 0.0 | 1.6 | 0.00 | 0.36 | 0.08 | 73 | 1019.4 |
| 20260831214645 | 22 | 181 | 0.0 | 1.6 | 0.00 | 0.36 | 0.08 | 69 | 1019.4 |
| 20260831213644 | 23 | 195 | 0.0 | 1.6 | 0.00 | 0.36 | 0.08 | 67 | 1019.5 |
| 20260831212646 | 23 | 195 | 0.0 | 1.6 | 0.00 | 0.36 | 0.08 | 67 | 1019.4 |
| 20260831211643 | 23 | 162 | 0.0 | 1.6 | 0.00 | 0.36 | 0.08 | 66 | 1019.4 |
| 20260831210643 | 23 | 129 | 0.0 | 1.6 | 0.00 | 0.36 | 0.08 | 65 | 1019.3 |
| 20260831205638 | 24 | 136 | 0.0 | 1.6 | 0.00 | 0.36 | 0.08 | 62 | 1019.3 |
| 20260831204639 | 24 | 133 | 0.0 | 1.6 | 0.00 | 0.36 | 0.08 | 62 | 1019.3 |
| 20260831203637 | 23 | 136 | 0.0 | 1.6 | 0.00 | 0.36 | 0.08 | 61 | 1019.4 |
| 20260831202640 | 23 | 128 | 0.0 | 1.6 | 0.00 | 0.36 | 0.08 | 62 | 1019.4 |
| 20260831201638 | 24 | 112 | 0.0 | 1.6 | 0.00 | 0.36 | 0.08 | 62 | 1019.2 |
| 20260831200637 | 24 | 134 | 0.0 | 1.6 | 0.00 | 0.36 | 0.08 | 61 | 1019.2 |
| 20260831200140 | 24 | 183 | 0.0 | 8.0 | 0.00 | 0.36 | 0.08 | 61 | 1019.5 |
| 20260831195754 | 23 | 33 | 0.0 | 8.0 | 0.00 | 0.36 | 0.08 | 65 | 1019.4 |
| 20260831193638 | 23 | 67 | 1.6 | 8.0 | 0.00 | 0.36 | 0.08 | 66 | 1019.5 |
| 20260831192632 | 23 | 103 | 0.0 | 1.6 | 0.00 | 0.36 | 0.08 | 64 | 1019.5 |
| 20260831191631 | 23 | 113 | 0.0 | 6.4 | 0.00 | 0.36 | 0.08 | 65 | 1019.8 |
| 20260831190632 | 23 | 33 | 1.6 | 8.0 | 0.00 | 0.36 | 0.08 | 64 | 1019.8 |
| 20260831185633 | 23 | 108 | 0.0 | 1.6 | 0.00 | 0.36 | 0.08 | 64 | 1019.9 |
| 20260831184633 | 23 | 219 | 1.6 | 8.0 | 0.00 | 0.36 | 0.08 | 66 | 1020.1 |
| 20260831184136 | 23 | 70 | 0.0 | 8.0 | 0.00 | 0.36 | 0.08 | 66 | 1020.0 |
| 20260831182633 | 23 | 134 | 1.6 | 8.0 | 0.00 | 0.36 | 0.08 | 67 | 1019.9 |
| 20260831181634 | 23 | 57 | 1.6 | 6.4 | 0.00 | 0.36 | 0.08 | 67 | 1020.0 |
| 20260831180630 | 23 | 358 | 0.0 | 4.8 | 0.00 | 0.36 | 0.08 | 68 | 1020.2 |
| 20260831180129 | 23 | 71 | 1.6 | 8.0 | 0.00 | 0.36 | 0.08 | 67 | 1020.3 |
| 20260831174627 | 23 | 108 | 0.0 | 4.8 | 0.00 | 0.36 | 0.08 | 67 | 1020.4 |
| 20260831173628 | 23 | 102 | 1.6 | 8.0 | 0.00 | 0.36 | 0.08 | 66 | 1020.3 |
| 20260831172627 | 23 | 79 | 0.0 | 4.8 | 0.00 | 0.36 | 0.08 | 65 | 1020.3 |
| 20260831171626 | 23 | 79 | 1.6 | 9.7 | 0.00 | 0.36 | 0.08 | 64 | 1020.3 |
| 20260831171128 | 23 | 238 | 1.6 | 8.0 | 0.00 | 0.36 | 0.08 | 62 | 1020.4 |
| 20260831165627 | 23 | 92 | 1.6 | 11.3 | 0.00 | 0.36 | 0.08 | 64 | 1020.4 |
| 20260831164625 | 23 | 65 | 0.0 | 9.7 | 0.00 | 0.36 | 0.08 | 64 | 1020.6 |
| 20260831163626 | 23 | 31 | 0.0 | 4.8 | 0.00 | 0.36 | 0.08 | 65 | 1020.6 |
| 20260831162623 | 23 | 242 | 1.6 | 8.0 | 0.00 | 0.36 | 0.08 | 66 | 1020.6 |
| 20260831161625 | 23 | 78 | 1.6 | 9.7 | 0.00 | 0.36 | 0.08 | 65 | 1020.6 |